BAW816 EGLL-EKCH

Flight info

Callsign BAW816
Flight time N/A
Altitude 37000
Route BPK Q295 SOMVA DCT MAVAS DCT ROCZO DCT DOSUR P729 TUDLO
Aircraft A320/M-SDE3FGHIRWY/LB1

Departure

Time N/A
Airport London Heathrow Airport (EGLL)

Arrival

Time 2026-05-04 14:26
Airport Copenhagen Kastrup Airport (EKCH)
Time Latitude Longitude Altitude Speed Heading
2026-05-04 14:01 55.01746 9.50224 37001 ft 478 kts 49°
2026-05-04 14:02 55.03840 9.54721 37005 ft 478 kts 49°
2026-05-04 14:02 55.08092 9.63632 37006 ft 478 kts 50°
2026-05-04 14:02 55.10021 9.68370 36630 ft 482 kts 57°
2026-05-04 14:03 55.11557 9.73613 35847 ft 487 kts 67°
2026-05-04 14:03 55.12640 9.79217 35120 ft 488 kts 72°
2026-05-04 14:03 55.13639 9.84901 34340 ft 490 kts 72°
2026-05-04 14:03 55.14640 9.90606 33403 ft 493 kts 72°
2026-05-04 14:04 55.16660 10.02063 31777 ft 492 kts 72°
2026-05-04 14:04 55.17677 10.07798 31276 ft 485 kts 72°
2026-05-04 14:04 55.18661 10.13343 30698 ft 481 kts 72°
2026-05-04 14:05 55.20629 10.24532 29485 ft 475 kts 72°
2026-05-04 14:05 55.21587 10.30025 28940 ft 469 kts 72°
2026-05-04 14:05 55.22532 10.35461 28379 ft 464 kts 72°
2026-05-04 14:06 55.23468 10.40855 27827 ft 460 kts 72°
2026-05-04 14:06 55.24367 10.46047 27295 ft 456 kts 72°
2026-05-04 14:06 55.25283 10.51343 26751 ft 453 kts 72°
2026-05-04 14:06 55.26191 10.56619 26219 ft 450 kts 72°
2026-05-04 14:07 55.27087 10.61848 25707 ft 447 kts 72°
2026-05-04 14:07 55.27977 10.67061 25195 ft 444 kts 72°
2026-05-04 14:07 55.28861 10.72238 24704 ft 442 kts 72°
2026-05-04 14:07 55.29742 10.77389 24218 ft 440 kts 72°
2026-05-04 14:08 55.30623 10.82519 23745 ft 438 kts 72°
2026-05-04 14:08 55.31498 10.87615 23256 ft 436 kts 72°
2026-05-04 14:08 55.32366 10.92690 22795 ft 432 kts 72°
2026-05-04 14:08 55.33220 10.97730 22344 ft 430 kts 72°
2026-05-04 14:09 55.34897 11.07744 21420 ft 424 kts 73°
2026-05-04 14:09 55.35715 11.12698 20949 ft 421 kts 73°
2026-05-04 14:10 55.37338 11.22539 19988 ft 417 kts 73°
2026-05-04 14:10 55.38142 11.27427 19498 ft 415 kts 73°
2026-05-04 14:10 55.38936 11.32294 18995 ft 413 kts 73°
2026-05-04 14:10 55.39724 11.37145 18494 ft 412 kts 73°
2026-05-04 14:11 55.40511 11.41982 17952 ft 410 kts 73°
2026-05-04 14:11 55.42068 11.51529 17011 ft 400 kts 71°
2026-05-04 14:11 55.43168 11.55947 16674 ft 391 kts 60°
2026-05-04 14:12 55.44421 11.60168 16217 ft 387 kts 60°
2026-05-04 14:12 55.45665 11.64348 15751 ft 384 kts 60°
2026-05-04 14:12 55.48145 11.72678 14836 ft 378 kts 60°
2026-05-04 14:13 55.49362 11.76772 14395 ft 376 kts 60°
2026-05-04 14:13 55.50571 11.80839 13959 ft 373 kts 60°
2026-05-04 14:13 55.51771 11.84891 13513 ft 371 kts 60°
2026-05-04 14:13 55.52951 11.88891 13096 ft 366 kts 60°
2026-05-04 14:14 55.54124 11.92876 12574 ft 365 kts 60°
2026-05-04 14:14 55.56345 12.00427 11595 ft 362 kts 61°
2026-05-04 14:14 55.57507 12.04382 11079 ft 362 kts 61°
2026-05-04 14:15 55.59803 12.12235 10248 ft 353 kts 61°
2026-05-04 14:15 55.61975 12.19695 10001 ft 330 kts 61°
2026-05-04 14:16 55.64022 12.26731 9443 ft 320 kts 61°
2026-05-04 14:16 55.65033 12.30215 9208 ft 314 kts 61°
2026-05-04 14:17 55.67026 12.37099 8473 ft 313 kts 61°
2026-05-04 14:17 55.68012 12.40520 8149 ft 311 kts 61°
2026-05-04 14:17 55.69963 12.47303 7300 ft 306 kts 61°
2026-05-04 14:18 55.70915 12.50663 6880 ft 304 kts 61°
2026-05-04 14:18 55.72779 12.57332 6000 ft 300 kts 61°
2026-05-04 14:19 55.74585 12.63874 5032 ft 289 kts 61°
2026-05-04 14:19 55.75463 12.67054 4472 ft 285 kts 61°
2026-05-04 14:19 55.76328 12.70202 4033 ft 283 kts 62°
2026-05-04 14:19 55.77182 12.73302 3838 ft 276 kts 62°
2026-05-04 14:20 55.78017 12.76338 3626 ft 271 kts 61°
2026-05-04 14:20 55.78749 12.79433 3412 ft 267 kts 76°
2026-05-04 14:20 55.78721 12.82665 3248 ft 260 kts 107°
2026-05-04 14:21 55.76363 12.86473 3014 ft 224 kts 184°
2026-05-04 14:21 55.74982 12.85767 3001 ft 198 kts 217°
2026-05-04 14:21 55.73892 12.84367 2956 ft 190 kts 224°
2026-05-04 14:21 55.72902 12.82875 2801 ft 182 kts 226°
2026-05-04 14:22 55.72278 12.81909 2626 ft 179 kts 226°
2026-05-04 14:22 55.71350 12.80465 2394 ft 175 kts 226°
2026-05-04 14:22 55.70445 12.79054 2155 ft 172 kts 227°
2026-05-04 14:22 55.69558 12.77672 1928 ft 168 kts 227°
2026-05-04 14:23 55.67906 12.75103 1486 ft 147 kts 226°
2026-05-04 14:23 55.67159 12.73940 1302 ft 139 kts 227°
2026-05-04 14:23 55.66441 12.72823 1103 ft 136 kts 226°
2026-05-04 14:24 55.65735 12.71723 915 ft 135 kts 227°
2026-05-04 14:24 55.65026 12.70620 733 ft 135 kts 226°
2026-05-04 14:24 55.64323 12.69529 532 ft 134 kts 227°
2026-05-04 14:24 55.63621 12.68440 341 ft 135 kts 226°
2026-05-04 14:25 55.62909 12.67333 177 ft 136 kts 226°
2026-05-04 14:25 55.61664 12.65389 23 ft 84 kts 222°
2026-05-04 14:25 55.61330 12.64855 24 ft 52 kts 232°
2026-05-04 14:26 55.61214 12.64388 24 ft 24 kts 251°
2026-05-04 14:26 55.61198 12.64151 26 ft 19 kts 299°
2026-05-04 14:26 55.61315 12.64148 26 ft 19 kts 34°
2026-05-04 14:26 55.61435 12.64287 24 ft 22 kts 33°
2026-05-04 14:27 55.61571 12.64444 25 ft 25 kts 33°
2026-05-04 14:27 55.61688 12.64579 25 ft 18 kts 33°
2026-05-04 14:27 55.61784 12.64689 26 ft 16 kts 33°
2026-05-04 14:27 55.61850 12.64765 25 ft 11 kts 33°
2026-05-04 14:28 55.61905 12.64829 25 ft 8 kts 33°
2026-05-04 14:28 55.61957 12.64888 26 ft 9 kts 33°
2026-05-04 14:28 55.62012 12.64951 24 ft 10 kts 33°
2026-05-04 14:28 55.62076 12.65025 24 ft 13 kts 33°
2026-05-04 14:29 55.62257 12.65197 24 ft 16 kts 360°
2026-05-04 14:29 55.62468 12.65191 24 ft 12 kts 352°
2026-05-04 14:30 55.62558 12.65182 24 ft 10 kts 359°
2026-05-04 14:30 55.62631 12.65186 24 ft 11 kts
2026-05-04 14:30 55.62697 12.65094 24 ft 3 kts 289°
2026-05-04 14:31 55.62700 12.65078 24 ft 0 kts 289°